This is the latest recevied weather packets stored in our database for station/object VE6CWS-7. If no packets are shown the sender has not sent any weather packets the latest 10 day(s).
| Time | Temp. | Humidity | Pressure | Rain* | Wind** | Luminosity | Snow |
|---|---|---|---|---|---|---|---|
| 1788149787 | 55° F | 77% | 755 mmHg | 0 in | - | - | - |
| 1788148899 | 55° F | 76% | 754.9 mmHg | 0 in | - | - | - |
| 1788147938 | 54° F | 75% | 754.9 mmHg | 0 in | - | - | - |
| 1788147037 | 54° F | 73% | 754.9 mmHg | 0 in | - | - | - |
| 1788146136 | 54° F | 68% | 754.7 mmHg | 0 in | - | - | - |
| 1788145296 | 55° F | 65% | 754.6 mmHg | 0 in | - | - | - |
| 1788144341 | 55° F | 64% | 754.3 mmHg | 0 in | - | - | - |
| 1788143434 | 56° F | 64% | 754.3 mmHg | 0 in | - | - | - |
| 1788142542 | 58° F | 61% | 754.1 mmHg | 0 in | - | - | - |
| 1788141694 | 60° F | 58% | 754 mmHg | 0 in | - | - | - |
| 1788140752 | 62° F | 53% | 753.9 mmHg | 0 in | - | - | - |
| 1788139866 | 64° F | 52% | 753.8 mmHg | 0 in | - | - | - |
| 1788138955 | 65° F | 47% | 753.8 mmHg | 0 in | - | - | - |
| 1788138109 | 65° F | 48% | 753.7 mmHg | 0 in | - | - | - |
| 1788137153 | 66° F | 46% | 753.5 mmHg | 0 in | - | - | - |
| 1788136250 | 65° F | 47% | 753.6 mmHg | 0 in | - | - | - |
| 1788135350 | 64° F | 48% | 753.5 mmHg | 0 in | - | - | - |
| 1788133547 | 64° F | 49% | 753.6 mmHg | 0 in | - | - | - |
| 1788132646 | 64° F | 47% | 753.6 mmHg | 0 in | - | - | - |
| 1788131746 | 65° F | 46% | 753.6 mmHg | 0 in | - | - | - |
| 1788130904 | 65° F | 46% | 753.5 mmHg | 0 in | - | - | - |
| 1788129944 | 64° F | 45% | 753.6 mmHg | 0 in | - | - | - |
| 1788129066 | 65° F | 45% | 753.6 mmHg | 0 in | - | - | - |
| 1788128142 | 65° F | 43% | 753.7 mmHg | 0 in | - | - | - |
| 1788127301 | 65° F | 43% | 753.7 mmHg | 0 in | - | - | - |
* Rain latest hour (hover to see other rain measurements)
** Current wind speed in m/s (hover to see current wind gust speed)